Location: Unspecified
(33.9239°N, 118.0544°W)
Time: 07:11:05
(UTC-07:00)

Cosmos 2058 - Visible Passes

Search period start: 30 July 2015 00:00
Search period end: 09 August 2015 00:00
Orbit: 565 x 590 km, 82.5° (Epoch: 30 July)

Date Brightness Start Highest point End Pass type
(mag) Time Alt. Az. Time Alt. Az. Time Alt. Az.
30 Jul 5.3 03:42:19 10° NNE 03:45:25 21° ENE 03:48:36 10° SE visible
30 Jul 4.2 05:19:08 10° NW 05:22:23 22° W 05:25:32 10° SW visible
31 Jul 4.8 03:46:12 10° NNE 03:49:47 29° ENE 03:53:22 10° SE visible
31 Jul 4.6 05:23:59 10° NW 05:26:36 16° W 05:29:02 10° SW visible
01 Aug 4.1 03:50:13 10° N 03:54:07 40° E 03:56:34 20° SE visible
01 Aug 4.9 05:29:26 10° WNW 05:30:48 11° W 05:31:55 10° WSW visible
02 Aug 3.4 03:54:21 10° N 03:58:26 59° E 03:59:54 36° SE visible
03 Aug 2.8 03:58:33 10° N 04:02:42 85° E 04:03:19 64° SSE visible
04 Aug 2.8 04:02:51 10° NNW 04:06:49 65° W 04:06:49 65° W visible
05 Aug 5.9 02:33:10 10° ENE 02:33:51 10° ENE 02:34:09 10° ENE visible
05 Aug 3.6 04:07:14 10° NNW 04:10:23 39° WNW 04:10:23 39° WNW visible
06 Aug 5.7 02:35:58 10° NE 02:37:46 14° ENE 02:37:46 14° ENE visible
06 Aug 4.3 04:11:43 10° NNW 04:14:01 25° NW 04:14:01 25° NW visible
07 Aug 5.5 02:39:36 10° NNE 02:41:27 18° NE 02:41:27 18° NE visible
07 Aug 4.9 04:16:20 10° NW 04:17:42 17° NW 04:17:42 17° NW visible
08 Aug 5.4 02:43:27 10° NNE 02:45:11 20° NE 02:45:11 20° NE visible
08 Aug 5.3 04:21:10 10° NW 04:21:26 11° NW 04:21:26 11° NW visible
